.
WxDataArchive / Data Records for 2011-01-30
2011-01-29 January 2011 2011-01-31

Data Records for Sunday, 30 January 2011

Time	Temp	Chill	HIndex	Humid	Dewpt	 Wind 	HiWind	WindDir	Rain 	Barom 
-----	----	-----	------	-----	-----	------	------	-------	-----	----- 
00:00	30.0	30.0	30.0	80	24.6	0	1	248	0.00	30.071 
00:05	30.0	30.0	30.0	80	24.6	0	1	---	0.00	30.071 
00:10	30.0	30.0	30.0	80	24.6	0	0	---	0.00	30.071 
00:15	30.0	30.0	30.0	81	24.9	0	0	---	0.00	30.079 
00:20	30.0	30.0	30.0	81	24.9	0	0	---	0.00	30.079 
00:25	30.0	30.0	30.0	81	24.9	0	1	248	0.00	30.079 
00:30	30.0	30.0	30.0	81	24.9	0	1	248	0.00	30.080 
00:35	30.0	30.0	30.0	81	24.9	0	1	248	0.00	30.080 
00:40	30.0	30.0	30.0	81	24.9	0	1	248	0.00	30.080 
00:45	30.1	30.1	30.1	81	25.0	0	1	248	0.00	30.077 
00:50	30.1	30.1	30.1	81	25.0	0	1	248	0.00	30.077 
00:55	30.1	30.1	30.1	81	25.0	0	2	248	0.00	30.077 
01:00	30.1	30.1	30.1	81	25.0	0	1	248	0.00	30.080 
01:05	30.3	30.3	30.3	81	25.2	0	1	248	0.00	30.080 
01:10	30.3	30.3	30.3	81	25.2	0	2	248	0.00	30.080 
01:15	30.3	30.3	30.3	81	25.2	0	1	248	0.00	30.085 
01:20	30.3	30.3	30.3	82	25.5	0	1	248	0.00	30.085 
01:25	30.1	30.1	30.1	82	25.3	1	2	248	0.00	30.085 
01:30	30.1	30.1	30.1	82	25.3	0	2	248	0.00	30.086 
01:35	30.0	30.0	30.0	83	25.5	0	2	248	0.00	30.086 
01:40	30.0	30.0	30.0	83	25.5	0	1	248	0.00	30.086 
01:45	29.8	29.8	29.8	84	25.6	0	1	248	0.00	30.084 
01:50	29.7	29.7	29.7	84	25.5	0	0	---	0.00	30.084 
01:55	29.7	29.7	29.7	84	25.5	0	0	---	0.00	30.084 
02:00	29.5	29.5	29.5	85	25.6	0	0	---	0.00	30.080 
02:05	29.5	29.5	29.5	85	25.6	0	1	248	0.00	30.080 
02:10	29.5	29.5	29.5	85	25.6	0	1	248	0.00	30.080 
02:15	29.5	29.5	29.5	85	25.6	0	1	248	0.00	30.088 
02:20	29.5	29.5	29.5	86	25.8	0	0	---	0.00	30.088 
02:25	29.4	29.4	29.4	86	25.7	0	1	248	0.00	30.088 
02:30	29.4	29.4	29.4	86	25.7	0	0	---	0.00	30.093 
02:35	29.4	29.4	29.4	86	25.7	0	0	---	0.00	30.093 
02:40	29.4	29.4	29.4	87	26.0	0	0	---	0.00	30.093 
02:45	29.4	29.4	29.4	87	26.0	0	0	---	0.00	30.101 
02:50	29.3	29.3	29.3	87	25.9	0	0	---	0.00	30.101 
02:55	29.3	29.3	29.3	87	25.9	0	0	---	0.00	30.101 
03:00	29.3	29.3	29.3	88	26.2	0	1	248	0.00	30.106 
03:05	29.3	29.3	29.3	88	26.2	0	0	---	0.00	30.106 
03:10	29.1	29.1	29.1	88	26.0	0	0	---	0.00	30.106 
03:15	29.1	29.1	29.1	88	26.0	0	0	---	0.00	30.114 
03:20	29.1	29.1	29.1	89	26.3	0	0	---	0.00	30.114 
03:25	29.1	29.1	29.1	89	26.3	0	0	---	0.00	30.114 
03:30	29.1	29.1	29.1	89	26.3	0	0	---	0.00	30.119 
03:35	29.0	29.0	29.0	89	26.2	0	0	---	0.00	30.119 
03:40	29.0	29.0	29.0	90	26.4	0	0	---	0.00	30.119 
03:45	29.0	29.0	29.0	90	26.4	0	0	---	0.00	30.119 
03:50	29.0	29.0	29.0	90	26.4	0	0	---	0.00	30.119 
03:55	28.8	28.8	28.8	90	26.2	0	0	---	0.00	30.119 
04:00	28.8	28.8	28.8	90	26.2	0	0	---	0.00	30.121 
04:05	28.8	28.8	28.8	90	26.2	0	0	---	0.00	30.121 
04:10	28.7	28.7	28.7	91	26.4	0	0	---	0.00	30.121 
04:15	28.7	28.7	28.7	91	26.4	0	0	---	0.00	30.122 
04:20	28.7	28.7	28.7	91	26.4	0	0	---	0.00	30.122 
04:25	28.7	28.7	28.7	91	26.4	0	0	---	0.00	30.122 
04:30	28.7	28.7	28.7	91	26.4	0	0	---	0.00	30.126 
04:35	28.7	28.7	28.7	91	26.4	0	0	---	0.00	30.126 
04:40	28.7	28.7	28.7	91	26.4	0	0	---	0.00	30.126 
04:45	28.7	28.7	28.7	91	26.4	0	0	---	0.00	30.127 
04:50	28.5	28.5	28.5	91	26.2	0	0	---	0.00	30.127 
04:55	28.5	28.5	28.5	91	26.2	0	0	---	0.00	30.127 
05:00	28.5	28.5	28.5	91	26.2	0	0	---	0.00	30.129 
05:05	28.5	28.5	28.5	92	26.5	0	0	---	0.00	30.129 
05:10	28.5	28.5	28.5	92	26.5	0	0	---	0.00	30.129 
05:15	28.5	28.5	28.5	92	26.5	0	0	---	0.00	30.131 
05:20	28.5	28.5	28.5	92	26.5	0	0	---	0.00	30.131 
05:25	28.4	28.4	28.4	92	26.4	0	0	---	0.00	30.131 
05:30	28.4	28.4	28.4	92	26.4	0	0	---	0.00	30.137 
05:35	28.4	28.4	28.4	92	26.4	0	0	---	0.00	30.137 
05:40	28.4	28.4	28.4	92	26.4	0	0	---	0.00	30.137 
05:45	28.4	28.4	28.4	92	26.4	0	0	---	0.00	30.139 
05:50	28.4	28.4	28.4	92	26.4	0	0	---	0.00	30.139 
05:55	28.4	28.4	28.4	92	26.4	0	0	---	0.00	30.139 
06:00	28.4	28.4	28.4	92	26.4	0	0	---	0.00	30.140 
06:05	28.4	28.4	28.4	92	26.4	0	0	---	0.00	30.140 
06:10	28.4	28.4	28.4	92	26.4	0	0	---	0.00	30.140 
06:15	28.2	28.2	28.2	92	26.2	0	0	---	0.00	30.147 
06:20	28.2	28.2	28.2	92	26.2	0	0	---	0.00	30.147 
06:25	28.2	28.2	28.2	92	26.2	0	1	248	0.00	30.147 
06:30	28.1	28.1	28.1	92	26.1	0	0	---	0.00	30.153 
06:35	28.1	28.1	28.1	92	26.1	0	0	---	0.00	30.153 
06:40	28.1	28.1	28.1	92	26.1	0	1	248	0.00	30.153 
06:45	28.1	28.1	28.1	92	26.1	0	1	248	0.00	30.157 
06:50	27.9	27.9	27.9	92	25.9	0	1	248	0.00	30.157 
06:55	27.8	27.8	27.8	92	25.8	0	0	---	0.00	30.157 
07:00	27.8	27.8	27.8	92	25.8	0	0	---	0.00	30.165 
07:05	27.6	27.6	27.6	92	25.6	0	0	---	0.00	30.165 
07:10	27.3	27.3	27.3	91	25.0	0	0	---	0.00	30.165 
07:15	27.2	27.2	27.2	91	24.9	0	1	248	0.00	30.173 
07:20	27.0	27.0	27.0	91	24.7	0	0	---	0.00	30.173 
07:25	26.9	26.9	26.9	91	24.6	0	0	---	0.00	30.173 
07:30	26.7	26.7	26.7	91	24.4	0	0	---	0.00	30.184 
07:35	26.6	26.6	26.6	90	24.1	0	0	---	0.00	30.184 
07:40	26.4	26.4	26.4	90	23.9	0	1	248	0.00	30.184 
07:45	26.4	26.4	26.4	90	23.9	0	0	---	0.00	30.189 
07:50	26.3	26.3	26.3	90	23.8	0	0	---	0.00	30.189 
07:55	26.1	26.1	26.1	90	23.6	0	0	---	0.00	30.189 
08:00	26.1	26.1	26.1	90	23.6	0	0	---	0.00	30.195 
08:05	26.3	26.3	26.3	90	23.8	0	1	248	0.00	30.195 
08:10	26.3	26.3	26.3	90	23.8	0	0	---	0.00	30.195 
08:15	26.3	26.3	26.3	90	23.8	0	0	---	0.00	30.203 
08:20	26.3	26.3	26.3	89	23.5	0	1	248	0.00	30.203 
08:25	26.4	26.4	26.4	89	23.6	0	0	---	0.00	30.203 
08:30	26.4	26.4	26.4	89	23.6	0	2	68	0.00	30.212 
08:35	26.4	26.4	26.4	88	23.3	0	2	68	0.00	30.212 
08:40	26.6	26.6	26.6	88	23.5	0	2	90	0.00	30.212 
08:45	26.6	26.6	26.6	87	23.3	0	1	90	0.00	30.216 
08:50	26.7	26.7	26.7	86	23.1	0	2	90	0.00	30.216 
08:55	26.7	26.7	26.7	84	22.5	0	3	90	0.00	30.216 
09:00	26.7	26.7	26.7	83	22.2	1	3	90	0.00	30.219 
09:05	27.0	27.0	27.0	81	22.0	1	3	90	0.00	30.219 
09:10	27.2	27.2	27.2	79	21.6	0	2	90	0.00	30.219 
09:15	27.0	27.0	27.0	77	20.8	1	4	112	0.00	30.226 
09:20	27.0	27.0	27.0	77	20.8	1	2	45	0.00	30.226 
09:25	27.0	27.0	27.0	77	20.8	1	3	68	0.00	30.226 
09:30	27.3	27.3	27.3	75	20.4	1	4	90	0.00	30.234 
09:35	27.5	27.5	27.5	75	20.6	0	2	112	0.00	30.234 
09:40	27.6	27.6	27.6	74	20.4	0	2	68	0.00	30.234 
09:45	27.8	27.8	27.8	73	20.3	0	2	68	0.00	30.244 
09:50	28.1	28.1	28.1	73	20.6	1	4	90	0.00	30.244 
09:55	28.5	28.5	28.5	73	21.0	1	3	90	0.00	30.244 
10:00	28.8	28.8	28.8	73	21.3	1	4	112	0.00	30.246 
10:05	28.8	28.8	28.8	73	21.3	2	4	90	0.00	30.246 
10:10	28.5	28.5	28.5	73	21.0	2	4	90	0.00	30.246 
10:15	28.4	28.4	28.4	74	21.2	1	4	90	0.00	30.250 
10:20	28.4	28.4	28.4	74	21.2	1	3	90	0.00	30.250 
10:25	28.2	28.2	28.2	73	20.7	3	6	90	0.00	30.250 
10:30	28.2	28.2	28.2	74	21.0	2	5	90	0.00	30.258 
10:35	28.4	28.4	28.4	73	20.9	1	4	90	0.00	30.258 
10:40	28.4	28.4	28.4	73	20.9	2	4	90	0.00	30.258 
10:45	28.7	28.7	28.7	74	21.5	1	3	90	0.00	30.264 
10:50	28.7	28.7	28.7	73	21.2	3	7	90	0.00	30.264 
10:55	28.5	28.5	28.5	73	21.0	2	5	90	0.00	30.264 
11:00	28.5	28.5	28.5	73	21.0	2	5	112	0.00	30.266 
11:05	28.8	28.8	28.8	73	21.3	1	5	90	0.00	30.266 
11:10	29.0	29.0	29.0	73	21.4	2	5	112	0.00	30.266 
11:15	29.1	29.1	29.1	73	21.5	1	2	112	0.00	30.267 
11:20	29.5	29.5	29.5	73	21.9	1	3	112	0.00	30.267 
11:25	29.4	29.4	29.4	72	21.5	2	5	112	0.00	30.267 
11:30	29.3	29.3	29.3	72	21.4	2	4	90	0.00	30.274 
11:35	29.3	29.3	29.3	72	21.4	2	4	112	0.00	30.274 
11:40	29.3	29.3	29.3	72	21.4	1	4	90	0.00	30.274 
11:45	29.5	29.5	29.5	71	21.3	1	3	90	0.00	30.279 
11:50	29.8	29.8	29.8	71	21.6	1	6	90	0.00	30.279 
11:55	29.5	29.5	29.5	71	21.3	2	4	112	0.00	30.279 
12:00	29.3	29.3	29.3	71	21.1	2	5	90	0.00	30.280 
12:05	29.4	29.4	29.4	71	21.2	2	4	90	0.00	30.280 
12:10	29.4	29.4	29.4	72	21.5	2	5	68	0.00	30.280 
12:15	29.5	29.5	29.5	70	20.9	2	5	112	0.00	30.281 
12:20	29.7	29.7	29.7	71	21.5	2	4	90	0.00	30.281 
12:25	29.8	29.8	29.8	69	20.9	1	4	90	0.00	30.281 
12:30	29.7	29.7	29.7	69	20.8	2	6	90	0.00	30.280 
12:35	29.7	29.7	29.7	69	20.8	2	5	112	0.00	30.280 
12:40	29.7	29.7	29.7	69	20.8	1	4	112	0.00	30.280 
12:45	29.8	29.8	29.8	69	20.9	2	5	112	0.00	30.279 
12:50	29.8	29.8	29.8	68	20.5	1	4	90	0.00	30.279 
12:55	30.1	30.1	30.1	67	20.5	1	5	90	0.00	30.279 
13:00	30.1	30.1	30.1	66	20.1	2	4	90	0.00	30.279 
13:05	30.0	30.0	30.0	65	19.7	2	5	112	0.00	30.279 
13:10	29.8	29.8	29.8	66	19.8	2	5	90	0.00	30.279 
13:15	29.8	29.8	29.8	66	19.8	2	4	90	0.00	30.278 
13:20	29.8	29.8	29.8	65	19.5	1	3	112	0.00	30.278 
13:25	30.1	30.1	30.1	65	19.8	2	5	112	0.00	30.278 
13:30	30.0	30.0	30.0	65	19.7	1	2	112	0.00	30.280 
13:35	30.1	30.1	30.1	65	19.8	0	2	112	0.00	30.280 
13:40	30.1	30.1	30.1	64	19.4	2	4	68	0.00	30.280 
13:45	30.0	30.0	30.0	64	19.3	1	3	68	0.00	30.280 
13:50	30.1	30.1	30.1	64	19.4	2	6	90	0.00	30.280 
13:55	30.0	30.0	30.0	64	19.3	1	4	112	0.00	30.280 
14:00	29.8	29.8	29.8	64	19.1	2	4	112	0.00	30.279 
14:05	29.8	29.8	29.8	64	19.1	1	4	112	0.00	30.279 
14:10	29.8	29.8	29.8	63	18.8	2	4	90	0.00	30.279 
14:15	29.8	29.8	29.8	64	19.1	1	4	90	0.00	30.281 
14:20	30.1	30.1	30.1	62	18.7	1	5	90	0.00	30.281 
14:25	30.1	30.1	30.1	63	19.0	1	4	90	0.00	30.281 
14:30	30.1	30.1	30.1	63	19.0	2	5	90	0.00	30.282 
14:35	30.1	30.1	30.1	63	19.0	2	5	68	0.00	30.282 
14:40	30.1	30.1	30.1	62	18.7	2	4	68	0.00	30.282 
14:45	30.1	30.1	30.1	63	19.0	2	5	90	0.00	30.284 
14:50	30.1	30.1	30.1	63	19.0	2	4	90	0.00	30.284 
14:55	30.3	30.3	30.3	63	19.2	1	4	112	0.00	30.284 
15:00	30.4	30.4	30.4	63	19.3	0	2	45	0.00	30.283 
15:05	30.4	30.4	30.4	62	19.0	1	4	90	0.00	30.283 
15:10	30.4	30.4	30.4	62	19.0	1	4	45	0.00	30.283 
15:15	30.4	30.4	30.4	62	19.0	1	3	45	0.00	30.283 
15:20	30.4	30.4	30.4	63	19.3	1	3	90	0.00	30.283 
15:25	30.6	30.6	30.6	62	19.2	1	3	90	0.00	30.283 
15:30	30.7	30.7	30.7	62	19.2	1	4	158	0.00	30.283 
15:35	30.9	30.9	30.9	62	19.4	1	4	68	0.00	30.283 
15:40	31.0	31.0	31.0	62	19.5	1	3	68	0.00	30.283 
15:45	30.9	30.9	30.9	62	19.4	0	2	68	0.00	30.290 
15:50	30.9	30.9	30.9	62	19.4	0	2	68	0.00	30.290 
15:55	30.7	30.7	30.7	62	19.2	0	2	68	0.00	30.290 
16:00	30.7	30.7	30.7	62	19.2	1	4	68	0.00	30.296 
16:05	30.4	30.4	30.4	61	18.6	0	2	90	0.00	30.296 
16:10	30.3	30.3	30.3	61	18.5	0	2	68	0.00	30.296 
16:15	30.1	30.1	30.1	62	18.7	0	3	90	0.00	30.305 
16:20	29.8	29.8	29.8	62	18.4	0	2	68	0.00	30.305 
16:25	29.7	29.7	29.7	63	18.7	0	2	68	0.00	30.305 
16:30	29.5	29.5	29.5	63	18.5	0	4	68	0.00	30.306 
16:35	29.5	29.5	29.5	63	18.5	0	2	68	0.00	30.306 
16:40	29.3	29.3	29.3	62	17.9	0	2	68	0.00	30.306 
16:45	29.1	29.1	29.1	62	17.7	0	1	68	0.00	30.310 
16:50	29.0	29.0	29.0	63	18.0	0	2	68	0.00	30.310 
16:55	28.8	28.8	28.8	63	17.8	0	1	68	0.00	30.310 
17:00	28.7	28.7	28.7	63	17.7	0	0	---	0.00	30.313 
17:05	28.5	28.5	28.5	63	17.5	0	0	---	0.00	30.313 
17:10	28.4	28.4	28.4	62	17.1	0	0	---	0.00	30.313 
17:15	28.2	28.2	28.2	63	17.2	0	0	---	0.00	30.317 
17:20	27.9	27.9	27.9	63	17.0	0	2	68	0.00	30.317 
17:25	27.8	27.8	27.8	63	16.9	0	1	68	0.00	30.317 
17:30	27.6	27.6	27.6	64	17.0	0	0	---	0.00	30.326 
17:35	27.3	27.3	27.3	64	16.8	0	0	---	0.00	30.326 
17:40	27.0	27.0	27.0	65	16.8	0	2	68	0.00	30.326 
17:45	26.7	26.7	26.7	65	16.5	0	1	68	0.00	30.340 
17:50	26.3	26.3	26.3	65	16.2	0	1	68	0.00	30.340 
17:55	26.0	26.0	26.0	65	15.9	0	1	68	0.00	30.340 
18:00	25.7	25.7	25.7	65	15.6	0	1	68	0.00	30.346 
18:05	25.4	25.4	25.4	66	15.7	0	0	---	0.00	30.346 
18:10	25.1	25.1	25.1	66	15.4	0	0	---	0.00	30.346 
18:15	25.0	25.0	25.0	66	15.3	0	1	68	0.00	30.353 
18:20	24.7	24.7	24.7	67	15.3	0	1	68	0.00	30.353 
18:25	24.4	24.4	24.4	67	15.0	0	0	---	0.00	30.353 
18:30	24.1	24.1	24.1	67	14.8	0	0	---	0.00	30.365 
18:35	23.8	23.8	23.8	68	14.8	0	0	---	0.00	30.365 
18:40	23.5	23.5	23.5	68	14.5	0	0	---	0.00	30.365 
18:45	23.2	23.2	23.2	68	14.2	0	0	---	0.00	30.369 
18:50	22.9	22.9	22.9	68	13.9	0	0	---	0.00	30.369 
18:55	22.7	22.7	22.7	68	13.8	0	0	---	0.00	30.369 
19:00	22.4	22.4	22.4	68	13.5	0	0	---	0.00	30.377 
19:05	22.2	22.2	22.2	68	13.3	0	2	180	0.00	30.377 
19:10	22.2	22.2	22.2	66	12.6	0	2	22	0.00	30.377 
19:15	22.4	22.4	22.4	65	12.4	0	2	22	0.00	30.383 
19:20	22.4	22.4	22.4	64	12.1	0	1	22	0.00	30.383 
19:25	22.2	22.2	22.2	63	11.6	0	1	22	0.00	30.383 
19:30	22.1	22.1	22.1	62	11.1	0	1	22	0.00	30.384 
19:35	21.9	21.9	21.9	62	10.9	0	1	22	0.00	30.384 
19:40	21.6	21.6	21.6	62	10.6	0	0	---	0.00	30.384 
19:45	21.4	21.4	21.4	62	10.4	0	0	---	0.00	30.389 
19:50	21.1	21.1	21.1	62	10.1	0	1	22	0.00	30.389 
19:55	21.0	21.0	21.0	62	10.1	0	2	22	0.00	30.389 
20:00	21.0	21.0	21.0	62	10.1	0	1	68	0.00	30.397 
20:05	20.8	20.8	20.8	61	9.5	0	1	68	0.00	30.397 
20:10	20.8	20.8	20.8	61	9.5	0	1	68	0.00	30.397 
20:15	20.6	20.6	20.6	61	9.3	0	1	68	0.00	30.400 
20:20	20.5	20.5	20.5	61	9.2	0	2	68	0.00	30.400 
20:25	20.5	20.5	20.5	61	9.2	0	1	68	0.00	30.400 
20:30	20.3	20.3	20.3	61	9.0	0	1	68	0.00	30.403 
20:35	20.2	20.2	20.2	61	8.9	0	2	68	0.00	30.403 
20:40	20.0	20.0	20.0	61	8.7	0	1	68	0.00	30.403 
20:45	19.9	19.9	19.9	61	8.7	0	1	68	0.00	30.405 
20:50	19.7	19.7	19.7	61	8.5	0	1	68	0.00	30.405 
20:55	19.4	19.4	19.4	61	8.2	0	2	68	0.00	30.405 
21:00	19.2	19.2	19.2	62	8.3	0	1	68	0.00	30.407 
21:05	19.1	19.1	19.1	62	8.3	0	1	68	0.00	30.407 
21:10	19.1	19.1	19.1	62	8.3	0	2	68	0.00	30.407 
21:15	18.9	18.9	18.9	62	8.1	0	2	68	0.00	30.405 
21:20	18.9	18.9	18.9	62	8.1	0	1	68	0.00	30.405 
21:25	18.9	18.9	18.9	61	7.7	0	1	68	0.00	30.405 
21:30	18.8	18.8	18.8	61	7.6	0	1	68	0.00	30.414 
21:35	18.6	18.6	18.6	62	7.8	0	2	68	0.00	30.414 
21:40	18.6	18.6	18.6	62	7.8	0	3	45	0.00	30.414 
21:45	18.6	18.6	18.6	62	7.8	0	2	45	0.00	30.409 
21:50	18.4	18.4	18.4	62	7.6	0	3	45	0.00	30.409 
21:55	18.4	18.4	18.4	62	7.6	0	2	22	0.00	30.409 
22:00	18.4	18.4	18.4	62	7.6	0	3	22	0.00	30.418 
22:05	18.3	18.3	18.3	62	7.5	0	3	22	0.00	30.418 
22:10	18.3	18.3	18.3	62	7.5	0	3	90	0.00	30.418 
22:15	18.1	18.1	18.1	62	7.3	0	2	45	0.00	30.419 
22:20	18.1	18.1	18.1	62	7.3	0	2	68	0.00	30.419 
22:25	18.0	18.0	18.0	62	7.2	0	1	68	0.00	30.419 
22:30	17.8	17.8	17.8	62	7.0	0	1	68	0.00	30.420 
22:35	17.8	17.8	17.8	62	7.0	0	1	68	0.00	30.420 
22:40	17.7	17.7	17.7	62	6.9	0	1	68	0.00	30.420 
22:45	17.5	17.5	17.5	63	7.1	0	1	68	0.00	30.418 
22:50	17.5	17.5	17.5	63	7.1	0	2	68	0.00	30.418 
22:55	17.5	17.5	17.5	63	7.1	0	2	68	0.00	30.418 
23:00	17.3	17.3	17.3	63	6.9	0	2	68	0.00	30.410 
23:05	17.3	17.3	17.3	63	6.9	0	1	68	0.00	30.410 
23:10	17.2	17.2	17.2	63	6.8	0	1	68	0.00	30.410 
23:15	17.0	17.0	17.0	64	7.0	0	2	68	0.00	30.417 
23:20	16.9	16.9	16.9	64	6.9	0	2	68	0.00	30.417 
23:25	16.7	16.7	16.7	64	6.7	0	2	68	0.00	30.417 
23:30	16.4	16.4	16.4	64	6.4	0	1	68	0.00	30.423 
23:35	16.2	16.2	16.2	65	6.5	0	1	68	0.00	30.423 
23:40	15.9	15.9	15.9	65	6.2	0	1	68	0.00	30.423 
23:45	15.6	15.6	15.6	65	6.0	0	0	---	0.00	30.426 
23:50	15.2	15.2	15.2	65	5.6	0	0	---	0.00	30.426 
23:55	14.8	14.8	14.8	65	5.2	0	0	---	0.00	30.426 

CoCoRaHS
IN-AL-39
A2 Web Hosting
Creative Commons License
GoDaddy
search engine by freefind advanced

loaded 2018-11-13 21:14:01 • last modified 2010-11-18 10:43:29
Privacy PolicyDisclaimer
• wx.awcolley.com is powered by PmWiki v.2002016 •
• all content (unless otherwise noted) © 2018 A W Colley